sat.trackr.live / text

‹ back to catalog

ONEWEB-0115

NORAD 48042 · 2021-025A

PAYLOAD ACTIVE UNKNOWN

§ Identity

Operator
Country
UK
Launch date
2021-03-25
Launch site
VOSTO
Launch vehicle
Mass (kg)
RCS (m²)

Purposes: comms

External: N2YO · Heavens-Above · Gunter

§ Orbital elements

Epoch: 2026-09-20T02:13:55.734816Z

Period
109.63 min
Inclination
87.8923°
Eccentricity
0.0001935
Mean motion
13.13468527 rev/d
Perigee alt
1,208.3 km
Apogee alt
1,211.2 km
Semi-major
7,587.9 km
B*
9.2593e-4
RAAN
301.3415°
Arg perigee
92.8248°
Mean anomaly
267.3103°
Rev number
26,605

§ Raw data

ONEWEB-01151 48042U 21025A   26263.09300619  .00000351  00000+0  92593-3 0  99942 48042  87.8923 301.3415 0001935  92.8248 267.3103 13.13468527266056

JSON: /api/v1/satellites/48042 · /tle

For live sub-satellite position, see the globe view (requires WebGL).

§ Visibility from observer

Set your observer location to see the next 7 days of passes ≥ 10°. The values pass through the URL so the page stays shareable.

No JS? Fill the form by hand. The geolocation button needs JavaScript.